Weather in Kiel

Germany     54°19′02″N   10°07′26″E
temp.,
°C
wind,
m/s
gust,
m/s
humid.,
%
clouds,
%
prec.,
mm/h
press.,
hPa
HPBL,
m
18 may, tue
tue1823:00+8nw2395100 0.0 100537
02:00+7wnw359742 0.0 100690
05:00+5w36975 0.0 1007115
08:00+9wsw35927 0.0 1009303
11:00+13w457467 0.3 10091186
14:00+14wnw456893 1.0 10091404
17:00+13wnw456980 0.4 10101228
20:00+11wnw47806 0.5 1011361
19 may, wed
wed1923:00+6nw36955 0.0 1013110
02:00+4wnw33954 0.0 101455
05:00+4w22955 0.0 101440
08:00+9wsw35855 0.0 1014284
11:00+13wsw566527 0.1 10141372
14:00+14w675858 0.1 10141688
17:00+14wnw56615 0.1 10141428
20:00+11wnw367927 0.1 1015355
20 may, thu
thu2023:00+6wnw369626 0.0 1016114
02:00+5wnw34974 0.0 101782
05:00+4w35977 0.0 1018102
08:00+9w488657 0.0 1019651
11:00+12w686151 0.0 10191488
14:00+13w795741 0.1 10201747
17:00+12w796134 0.0 10201434
20:00+10w48775 0.0 1020765
21 may, fri
fri2123:00+5wsw35965 0.0 1020100
02:00+5ssw3697100 0.0 1019125
05:00+5ssw3797100 0.0 1017152
08:00+9ssw4983100 0.0 1015377
11:00+11ssw41079100 0.0 1014995
14:00+9ssw71596100 1.3 1012864
17:00+9ssw61397100 2.2 1010708
20:00+9s61397100 3.2 1007812
22 may, sat
sat2223:00+9s51297100 0.3 1006608
02:00+10ssw5109799 0.5 1004540
05:00+8ssw4129835 0.0 1003404
08:00+9sw6139211 0.0 1004752
11:00+12sw7118092 0.4 10041288
14:00+13sw8128154 2.0 10041515
17:00+12sw71389100 2.1 10041403
20:00+11ssw71491100 3.3 10041062